Regional Weather Roundup
Issued by NWS

Home | Current Version | Previous Version | Graphics & Text | Print | Product List | Glossary Off
Versions: 1 2 3 4 5 6 7 8 9 10 11 12 13 14 15 16 17 18 19 20 21 22 23 24 25 26 27 28 29 30 31 32 33 34 35 36 37 38 39 40 41 42 43 44 45 46 47 48 49 50

000
ASUS43 KTOP 192008
RWRKS

WEATHER ROUNDUP FOR KANSAS
NATIONAL WEATHER SERVICE GOODLAND KS
200 PM CST SUN FEB 19 2017

NOTE:  "FAIR" INDICATES FEW OR NO CLOUDS BELOW 12,000 FEET WITH NO
SIGNIFICANT WEATHER AND/OR OBSTRUCTIONS TO VISIBILITY.

KSZ001>006-013>018-027>032-041>047-192100-
NORTHWEST KANSAS

CITY           SKY/WX    TMP DP  RH WIND       PRES   REMARKS
GOODLAND       MOSUNNY   67  42  40 S30G38    29.67F
HAYS           SUNNY     71  48  43 S22       29.74F
HILL CITY      SUNNY     74  45  35 S15G22    29.72F
RUSSELL        SUNNY     68  50  52 SE18G26   29.76F
$$

KSZ061>065-074>080-084>089-192100-
SOUTHWEST KANSAS

CITY           SKY/WX    TMP DP  RH WIND       PRES   REMARKS
DODGE CITY     SUNNY     67  50  54 S23G31    29.76F
ELKHART          N/A     64  41  43 S15         N/A
GARDEN CITY    SUNNY     72  49  44 S26G33    29.72F
GREAT BEND     SUNNY     66  50  56 S16G25    29.79F
LIBERAL        SUNNY     73  52  46 S23G29    29.74F
PRATT          PTSUNNY   57  49  76 S15G23    29.82F
$$

KSZ066>073-081>083-090>101-192100-
SOUTHEAST KANSAS

CITY           SKY/WX    TMP DP  RH WIND       PRES   REMARKS
CHANUTE        SUNNY     70  55  59 S15       29.92F
COFFEYVILLE    CLOUDY    68  57  68 S15       29.92F
HUTCHINSON     CLOUDY    59  52  77 S15       29.84F
MEDICINE LODGE   N/A     58  53  84 S10G23    29.83F
NEWTON         CLOUDY    59  53  80 S15       29.87F
PARSONS        PTSUNNY   69  56  62 S12       29.93F
WICHITA INTL   CLOUDY    61  55  81 S14       29.86F
WICHITA JABRA  CLOUDY    60  54  80 S15       29.86F
WICHITA MCCONL CLOUDY    60  54  78 S16       29.86F
WINFIELD       CLOUDY    62  56  80 S10       29.89F
$$

KSZ007>012-019>026-033>040-048>060-102>105-192100-
NORTHEAST KANSAS

CITY           SKY/WX    TMP DP  RH WIND       PRES   REMARKS
CONCORDIA      CLOUDY    58  53  84 SE16      29.83F
EMPORIA        CLOUDY    58  54  86 S14       29.90F
LAWRENCE       SUNNY     72  55  55 SE16G23   29.89F
MANHATTAN      CLOUDY    61  53  75 S14G21    29.87F
MARYSVILLE     MOSUNNY   66  54  63 S17       29.84F
OLATHE IND     SUNNY     72  54  53 SE18      29.91F
OLATHE EXE     SUNNY     71  55  56 S12G22    29.91F
SALINA         CLOUDY    62  52  69 S18G24    29.84F
TOPEKA BILLARD MOSUNNY   68  55  63 S14G20    29.88F
TOPEKA FORBES  PTSUNNY   65  55  70 S17       29.89F
$$



USA.gov is the U.S. government's official web portal to all federal, state and local government web resources and services.